Sharm El Sheikh, Egypt

10:47 AM EET on August 20, 2017 (GMT +0200)
Sharm El Sheikh

Weather History for HESH - December, 2013

Change the Weather History Date:

Monday, December 23, 2013

  Actual Average Record
Temperature  
Mean Temperature 66 °F -  
Max Temperature 77 °F 72 °F - ()
Min Temperature 51 °F 56 °F - ()
Cooling Degree Days 1    
Growing Degree Days 16 (Base 50)    
Moisture  
Dew Point 22 °F    
Average Humidity 22    
Maximum Humidity 72    
Minimum Humidity 12    
Precipitation  
Precipitation 0.00 in 0.00 in - ()
Sea Level Pressure  
Sea Level Pressure 30.16 in    
Wind  
Wind Speed 8 mph ()    
Max Wind Speed 17 mph    
Max Gust Speed -    
T = Trace of Precipitation, MM = Missing Value Source: Averaged Metar Reports

Daily Weather History Graph

Daily Weather History Graph

Search for Another Location

Airport or City:

Trip Planner

Search our weather history database for the weather conditions in past years. The results will help you decide how hot, cold, wet, or windy it might be!

Date:

Astronomy

Dec. 23, 2013 Rise Set
Actual Time 6:30 AM EET 4:52 PM EET
Civil Twilight 6:04 AM EET 5:18 PM EET
Nautical Twilight 5:35 AM EET 5:47 PM EET
Astronomical Twilight 5:06 AM EET 6:16 PM EET
Moon 10:15 PM EET (12/23) 10:10 AM EET (12/23)
Length of Visible Light 11h 13m
Length of Day
10h 22m
Waning Gibbous, 71% of the Moon is Illuminated
Dec 23
Waning Gibbous
Dec 25
Last Quarter
Jan 1
New
Jan 8
First Quarter
Jan 16
Full

Hourly Weather History & Observations

Time (EET) Temp. Dew Point Humidity Pressure Visibility Wind Dir Wind Speed Gust Speed Precip Events Conditions
12:00 AM 60.8 °F 17.6 °F 19% 30.15 in - North 10.4 mph - N/A   Clear
1:00 AM 59.0 °F 50.0 °F 72% 30.15 in - North 6.9 mph - N/A   Clear
2:00 AM 59.0 °F 12.2 °F 16% 30.15 in - North 6.9 mph - N/A   Clear
3:00 AM 59.0 °F 12.2 °F 16% 30.15 in - NNW 6.9 mph - N/A   Clear
4:00 AM 57.2 °F 14.0 °F 18% 30.15 in - North 6.9 mph - N/A   Clear
5:00 AM 57.2 °F 14.0 °F 18% 30.15 in - North 6.9 mph - N/A   Clear
6:00 AM 57.2 °F 14.0 °F 18% 30.15 in - NNW 6.9 mph - N/A   Clear
7:00 AM 55.4 °F 15.8 °F 21% 30.18 in - North 6.9 mph - N/A   Clear
8:00 AM 62.6 °F 17.6 °F 18% 30.18 in - North 8.1 mph - N/A   Clear
9:00 AM 68.0 °F 19.4 °F 16% 30.18 in - North 15.0 mph - N/A   Clear
10:00 AM 71.6 °F 26.6 °F 19% 30.21 in - North 17.3 mph - N/A   Clear
11:00 AM 73.4 °F 26.6 °F 18% 30.18 in - NNE 13.8 mph - N/A   Clear
12:00 PM 73.4 °F 26.6 °F 18% 30.18 in - NNE 15.0 mph - N/A   Clear
1:00 PM 75.2 °F 23.0 °F 14% 30.15 in - NNE 11.5 mph - N/A   Clear
2:00 PM 77.0 °F 21.2 °F 12% 30.12 in - NNE 10.4 mph - N/A   Clear
3:00 PM 77.0 °F 19.4 °F 12% 30.12 in - North 10.4 mph - N/A   Clear
4:00 PM 73.4 °F 19.4 °F 13% 30.15 in - NNE 6.9 mph - N/A   Clear
5:00 PM 68.0 °F 23.0 °F 18% 30.15 in - NNE 6.9 mph - N/A   Clear
6:00 PM 64.4 °F 30.2 °F 28% 30.15 in - North 5.8 mph - N/A   Clear
7:00 PM 62.6 °F 32.0 °F 32% 30.15 in - North 9.2 mph - N/A   Clear
8:00 PM 62.6 °F 32.0 °F 32% 30.18 in - North 9.2 mph - N/A   Clear
9:00 PM 66.2 °F 21.2 °F 18% 30.18 in - NE 6.9 mph - N/A   Clear
10:00 PM 59.0 °F 21.2 °F 23% 30.18 in - North 3.5 mph - N/A   Clear
11:00 PM 51.8 °F 19.4 °F 28% 30.18 in - North 4.6 mph - N/A   Clear